Tracking 18957 objects as of 22-Jan-2018
HD Live streaming from Space Station
objects crossing your sky now

FENGYUN 1C DEB

Track FENGYUN 1C DEB now!
10-day predictions


NORAD ID: 35155
Int'l Code: 1999-025DMK
Perigee: 833.8 km
Apogee: 874.0 km
Inclination: 98.8 °
Period: 101.9 minutes
Semi major axis: 7224 km
RCS: 0.0117 m2 (small)
Launch date: May 10, 1999
Source: People's Republic of China (PRC)
Launch site: Taiyaun Space Center, China (TSC)

Note: This is SATELLITE DEBRIS
aabbcc
Your satellite tracking list
Your tracking list is empty




NASA's NSSDC Master Catalog

Two Line Element Set (TLE):
1 35155U 99025DMK 18022.37243597 +.00000306 +00000-0 +18458-3 0  9995
2 35155 098.8069 086.7852 0027838 049.9347 310.4261 14.13687319319565
Source of the keplerian elements: AFSPC